Regional Weather Roundup
Issued by NWS

Home | Current Version | Previous Version | Text Only | Print | Product List | Glossary Off
Versions: 1 2 3 4 5 6 7 8 9 10 11 12 13 14 15 16 17 18 19 20 21 22 23 24 25 26 27 28 29 30 31 32 33 34 35 36 37 38 39 40 41 42 43 44 45 46 47 48 49 50

000
ASUS43 KMKX 200600
RWRWI

WISCONSIN REGIONAL WEATHER ROUNDUP
NATIONAL WEATHER SERVICE MILWAUKEE/SULLIVAN WI
100 AM CDT MON OCT 20 2014

NOTE: "FAIR" INDICATES FEW OR NO CLOUDS BELOW 12,000 FEET WITH NO
SIGNIFICANT WEATHER AND/OR OBSTRUCTIONS TO VISIBILITY.

WIZ001-002-006>008-014>016-023>028-200700-
NORTHWEST WISCONSIN

CITY           SKY/WX    TMP DP  RH WIND       PRES   REMARKS
SUPERIOR ARPT  CLOUDY    52  42  70 NW5       29.83R
ASHLAND        PTCLDY    47  41  80 W5        29.81R
6HR MIN TEMP:  46; 6HR MAX TEMP:  54;

HAYWARD        CLEAR     50  41  71 N5        29.82R
6HR MIN TEMP:  40; 6HR MAX TEMP:  51;

SIREN          CLEAR     45  40  81 NW6       29.85R
CUMBERLAND     CLEAR     50  41  71 N9        29.83R
RICE LAKE      CLEAR     50  41  73 NW6       29.83R
CHETEK         CLEAR     47  43  84 W3        29.81R
LADYSMITH      PTCLDY    49  43  80 NW7       29.80R
EAU CLAIRE     NOT AVBL
MENOMONIE      CLEAR     53  42  66 W8        29.81R
NEW RICHMOND   CLEAR     51  42  69 NW8       29.84S
OSCEOLA        CLEAR     53  43  69 NW6       29.88R
$$

WIZ003>005-009-010-017-018-200700-
NORTH CENTRAL WISCONSIN

CITY           SKY/WX    TMP DP  RH WIND       PRES   REMARKS
MANITOWISH WTR MOCLDY    42  42 100 NW3       29.75S
ARBOR VITAE    CLEAR     42  40  94 CALM      29.76R
WOODRUFF       CLEAR     42  40  94 CALM      29.76R
RHINELANDER    NOT AVBL
EAGLE RIVER    PTCLDY    41  40  99 CALM      29.74S FOG
LAND O LAKES   PTCLDY    46  43  87 CALM      29.75S
PHILLIPS       PTCLDY    46  42  86 NW3       29.76S
TOMAHAWK       PTCLDY    35  34  96 CALM      29.76S
MEDFORD        PTCLDY    39  38  97 W6        29.77R WCI  35
MERRILL        FOG       34  34 100 CALM      29.76S VSB 1/2
$$

WIZ029-030-035-036-043>047-200700-
CENTRAL WISCONSIN

CITY           SKY/WX    TMP DP  RH WIND       PRES   REMARKS
WAUSAU         NOT AVBL
MOSINEE        CLEAR     43  43 100 SW6       29.76F
MARSHFIELD     NOT AVBL
STEVENS POINT  CLEAR     38  38  99 NE3       29.76F
WAUPACA        CLEAR     45  43  93 CALM      29.76F
WAUTOMA        NOT AVBL
WISC RAPIDS    NOT AVBL
CAMP DOUGLAS   NOT AVBL
$$

WIZ011>013-019>022-031-037>040-048>050-200700-
NORTHEAST WISCONSIN

CITY           SKY/WX    TMP DP  RH WIND       PRES   REMARKS
ANTIGO         CLOUDY    37  37 100 CALM      29.75S FOG
SHAWANO        CLEAR     44  41  89 CALM      29.76S
OCONTO         MOCLDY    44  43  95 CALM      29.75S
STURGEON BAY   CLOUDY    50  43  76 SW7       29.76S
GREEN BAY      PTCLDY    47  43  86 CALM      29.76S
6HR MIN TEMP:  47; 6HR MAX TEMP:  53;

MANITOWOC      NOT AVBL
APPLETON       PTCLDY    46  41  81 SW8       29.77S
CLINTONVILLE   CLEAR     41  37  87 CALM      29.76S
OSHKOSH        PTCLDY    49  43  80 SW8       29.76F
6HR MIN TEMP:  49; 6HR MAX TEMP:  53; 6HR PCP: TRACE;

$$

WIZ032>034-041-042-053>061-200700-
SOUTHWEST WISCONSIN

CITY           SKY/WX    TMP DP  RH WIND       PRES   REMARKS
LA CROSSE      NOT AVBL
SPARTA         CLEAR     40  38  96 CALM      29.78S
VIROQUA        CLEAR     49  45  84 W7        29.79F
BOSCOBEL       CLEAR     49  44  83 S6        29.81S
6HR MIN TEMP:  47; 6HR MAX TEMP:  58;

PRAIRIE DU CHI CLEAR     55  44  66 NW3       29.82S
PLATTEVILLE    CLEAR     49  44  82 CALM      29.83F
$$

WIZ056-057-062-063-064-067-068-200700-
SOUTH CENTRAL WISCONSIN

CITY           SKY/WX    TMP DP  RH WIND       PRES   REMARKS
REEDSBURG      CLEAR     51  44  76 W5        29.77F
BARABOO/DELLS  CLEAR     50  42  73 SW8       29.77F
LONE ROCK      NOT AVBL
MINERAL POINT  FAIR      50  43  76 SW3       29.81S
MADISON        PTCLDY    53  43  68 SW7       29.79F
6HR MIN TEMP:  52; 6HR MAX TEMP:  55; 6HR PCP: TRACE;

MIDDLETON      PTCLDY    52  42  67 SW9       29.80F
WATERTOWN      PTCLDY    49  43  79 SW8       29.80F
MONROE         CLEAR     50  43  76 SW16      29.81F
JANESVILLE     CLEAR     52  41  66 SW13G18   29.83F
$$

WIZ051-052-058>065-066-070>072-200700-
SOUTHEAST WISCONSIN

CITY           SKY/WX    TMP DP  RH WIND       PRES   REMARKS
MILWAUKEE      MOCLDY    51  42  71 SW13      29.81F
6HR MIN TEMP:  50; 6HR MAX TEMP:  52; 6HR PCP: TRACE;

WAUKESHA       MOCLDY    48  41  76 SW10      29.82F
MILWAUKEE/TIMM MOCLDY    50  41  71 SW8       29.81F
RACINE         MOCLDY    52  42  69 SW12      29.83F
6HR MIN TEMP:  50; 6HR MAX TEMP:  53; 6HR PCP: TRACE;

BURLINGTON     PTCLDY    49  42  75 SW13G18   29.82F
KENOSHA        MOCLDY    52  43  71 SW13      29.83F
6HR MIN TEMP:  49; 6HR MAX TEMP:  53; 6HR PCP: TRACE;

FOND DU LAC    PTCLDY    49  42  77 SW12      29.77F
6HR MIN TEMP:  49; 6HR MAX TEMP:  53; 6HR PCP: TRACE;

SHEBOYGAN      MOCLDY    50  43  77 SW9       29.78F
6HR MIN TEMP:  49; 6HR MAX TEMP:  53; 6HR PCP:  0.02;

WEST BEND      MOCLDY    52  41  66 SW10G17   29.79F
JUNEAU         PTCLDY    45  41  86 SW7       29.81F
$$

LSZ147-162-200700-
LAKE SUPERIOR

STATION/POSITION TIME  TEMP    WIND        PRES    WAVE
                       AIR SEA DIR/SP/G            HT/PER
                 (UTC) (F)     (DEG/KT/KT) (MB)    (FT/S)
W MID LAKE BUOY  0450   47 46   10/  6/  8 1008.0R   1
DEVILS ISLAND    0500   52     330/ 18/ 21 1008.7R
PORT WING        0540   52     280/  5/  7 1009.8R
SAXON HARBOR     0500   53     310/ 10/ 11 1008.5R
$$

LMZ867-665-643>646-200700-
LAKE MICHIGAN

STATION/POSITION TIME  TEMP    WIND        PRES    WAVE
                       AIR SEA DIR/SP/G            HT/PER
                 (UTC) (F)     (DEG/KT/KT) (MB)    (FT/S)
CHAMBERS ISLAND  0500   52     190/  6/ 10 1007.8
N MID LAKE BUOY  0450   52 52  220/ 16/ 19 1007.4F   6/ 7
NORTHPORT PIER   0540   51     210/  3/  8 1007.1F
KEWAUNEE LAKESHO 0500   49     220/  3/  5 1007.3F
SHEBOYGAN LAKESH 0500   51 51  200/  8/  9 1009.2F
PORT WASHINGTON  0500   54     250/ 11/ 15 1009.8F
ATWATER BUOY     0500   55     220/ 14/ 17 1010.9
MILWAUKEE LAKESH 0500   55     240/ 13/ 16   N/A
S MID LAKE BUOY  0450   55 55  210/ 19/ 23 1011.4F   5/ 6
KENOSHA   LAKESH 0500   54     220/ 14/ 19 1010.8F
$$

TC  - TEMPERATURE IN CELSIUS
VSB - VISIBILITY IN STATUTE MILES
WCI - WIND CHILL INDEX
HX  - HEAT INDEX




USA.gov is the U.S. government's official web portal to all federal, state and local government web resources and services.